Regional Weather Roundup
Issued by NWS Albany, NY

Home | Current Version | Previous Version | Graphics & Text | Print | Product List | Glossary Off
Versions: 1 2 3 4 5 6 7 8 9 10 11 12 13 14 15 16 17 18 19 20 21 22 23 24 25 26 27 28 29 30 31 32 33 34 35 36 37 38 39 40 41 42 43 44 45 46 47 48 49 50

000
ASUS41 KALY 240110
RWRALY

NEW YORK STATE HOURLY WEATHER ROUNDUP
NATIONAL WEATHER SERVICE ALBANY NY
900 PM EDT WED JUL 23 2014

NOTE: "FAIR" INDICATES FEW OR NO CLOUDS BELOW 12,000 FEET WITH NO
SIGNIFICANT WEATHER AND/OR NO OBSTRUCTIONS TO VISIBILITY.

NYZ032-033-038>043-046>054-057>066-NYZ062>081-240200-
EAST


CITY           SKY/WX    TMP DP  RH WIND       PRES   REMARKS
ALBANY         LGT RAIN  71  66  84 W10       29.82R
GLENS FALLS    CLOUDY    71  68  90 CALM      29.81R
POUGHKEEPSIE   TSTM      72  70  93 SE3       29.80R
NEWBURGH       MOCLDY    72  70  94 W8        29.83
MONTGOMERY     CLOUDY    72  70  93 SW3       29.82R
WHITE PLAINS   TSTM      73  70  88 CALM      29.81R
ISLIP          MOCLDY    77  67  71 SW14      29.80S
NEW YORK CITY  CLOUDY    85  71  63 SW12G20   29.80R THUNDER HX  90
CENTRAL PARK   HVY RAIN  76  70  82 VRB5G25   29.86R VSB 1
$$

NYZ005>009-017-018-044>046-055-056-240200-
CENTRAL


CITY           SKY/WX    TMP DP  RH WIND       PRES   REMARKS
FULTON         CLOUDY    69  59  70 N12       29.91R
SYRACUSE       CLOUDY    71  64  78 NW7       29.89R
ROME           LGT RAIN  68  63  84 NW5       29.89R
ELMIRA         CLOUDY    69  62  78 N13       29.94R
BINGHAMTON     CLOUDY    66  64  94 W5        29.93R
MONTICELLO     CLOUDY    70  66  88 W7        29.89R
$$

NYZ026>034-041>043-240200-
NORTH


CITY           SKY/WX    TMP DP  RH WIND       PRES   REMARKS
WATERTOWN      CLOUDY    70  55  59 N7        29.91R
FORT DRUM      NOT AVBL
MASSENA        PTCLDY    64  60  87 NW5       29.88S
SARANAC LAKE   CLOUDY    63  59  87 NW5       29.89R
PLATTSBURGH    LGT RAIN  69  61  75 NW8       29.82R
$$

NYZ001>004-010>016-019>021-240200-
WEST


CITY           SKY/WX    TMP DP  RH WIND       PRES   REMARKS
NIAGARA FALLS  MOCLDY    66  56  70 NW9       29.98R
BUFFALO        MOCLDY    66  56  70 N10       29.99R
DUNKIRK        CLOUDY    66  56  70 N10       30.00R
JAMESTOWN      MOCLDY    63  57  82 N10       30.01R
WELLSVILLE     CLOUDY    66  58  75 VRB5G17   30.01R
ROCHESTER      CLOUDY    69  58  67 NW7       29.96R
PENN YAN       CLOUDY    68  59  73 NW8       29.96R
$$

             KEY
       WCI = WIND CHILL INDEX
       VSB = VISIBILITY
       HX  = HEAT INDEX
$$



USA.gov is the U.S. government's official web portal to all federal, state and local government web resources and services.